This is the latest recevied weather packets stored in our database for station/object OH2HCY. If no packets are shown the sender has not sent any weather packets the latest 10 day(s).
| Time | Temp. | Humidity | Pressure | Rain* | Wind** | Luminosity | Snow |
|---|---|---|---|---|---|---|---|
| 1777791480 | 10.56° C | 66% | 1004.1 hPa | - | - | - | - |
| 1777790969 | 10.56° C | 66% | 1003.9 hPa | - | - | - | - |
| 1777790445 | 10.56° C | 65% | 1003.7 hPa | - | - | - | - |
| 1777789900 | 10.56° C | 64% | 1003.7 hPa | - | - | - | - |
| 1777789365 | 10° C | 64% | 1003.3 hPa | - | - | - | - |
| 1777788805 | 10° C | 63% | 1003.1 hPa | - | - | - | - |
| 1777788260 | 10° C | 65% | 1003.4 hPa | - | - | - | - |
| 1777787700 | 9.44° C | 67% | 1003.5 hPa | - | - | - | - |
| 1777787165 | 9.44° C | 68% | 1003.6 hPa | - | - | - | - |
| 1777786640 | 8.89° C | 68% | 1003.5 hPa | - | - | - | - |
| 1777786105 | 8.89° C | 68% | 1003.4 hPa | - | - | - | - |
| 1777785603 | 8.89° C | 69% | 1003.5 hPa | - | - | - | - |
| 1777785056 | 8.33° C | 72% | 1003.6 hPa | - | - | - | - |
| 1777784510 | 8.33° C | 73% | 1003.6 hPa | - | - | - | - |
| 1777783990 | 7.78° C | 75% | 1003.8 hPa | - | - | - | - |
| 1777783455 | 7.22° C | 75% | 1004 hPa | - | - | - | - |
| 1777782937 | 7.22° C | 77% | 1003.9 hPa | - | - | - | - |
| 1777782418 | 7.22° C | 77% | 1004.1 hPa | - | - | - | - |
| 1777781845 | 6.67° C | 78% | 1004 hPa | - | - | - | - |
| 1777781299 | 6.67° C | 78% | 1003.9 hPa | - | - | - | - |
| 1777780760 | 6.67° C | 80% | 1003.9 hPa | - | - | - | - |
| 1777780235 | 6.11° C | 81% | 1003.9 hPa | - | - | - | - |
| 1777779680 | 6.11° C | 82% | 1003.9 hPa | - | - | - | - |
| 1777779125 | 5.56° C | 82% | 1004.1 hPa | - | - | - | - |
| 1777778579 | 5.56° C | 82% | 1004.2 hPa | - | - | - | - |
* Rain since midnight (hover to see other rain measurements)
** Current wind speed in m/s (hover to see current wind gust speed)